Moron de la Frontera, Spain

11:42 PM CEST on May 22, 2017 (GMT +0200)
Moron Air Base

Weather History for LEMO - August, 2013

Change the Weather History Date:

Friday, August 30, 2013

  Actual Average Record
Temperature  
Mean Temperature 78 °F -  
Max Temperature 93 °F 85 °F 107 °F (2006)
Min Temperature 64 °F 62 °F 57 °F (1996)
Cooling Degree Days 14    
Growing Degree Days 28 (Base 50)    
Moisture  
Dew Point 60 °F    
Average Humidity 57    
Maximum Humidity 83    
Minimum Humidity 28    
Precipitation  
Precipitation 0.00 in - - ()
Sea Level Pressure  
Sea Level Pressure 30.03 in    
Wind  
Wind Speed 2 mph ()    
Max Wind Speed 9 mph    
Max Gust Speed -    
Visibility 6.2 miles    
Events      
Averages and records for this station are not official NWS values.
T = Trace of Precipitation, MM = Missing Value Source: Averaged Metar Reports

Daily Weather History Graph

Daily Weather History Graph

Search for Another Location

Airport or City:

Trip Planner

Search our weather history database for the weather conditions in past years. The results will help you decide how hot, cold, wet, or windy it might be!

Date:

Astronomy

Aug. 30, 2013 Rise Set
Actual Time 7:51 AM CEST 8:53 PM CEST
Civil Twilight 7:24 AM CEST 9:20 PM CEST
Nautical Twilight 6:53 AM CEST 9:52 PM CEST
Astronomical Twilight 6:20 AM CEST 10:25 PM CEST
Moon 2:22 AM CEST (8/30) 4:55 PM CEST (8/30)
Length of Visible Light 13h 55m
Length of Day
13h 02m
Waning Crescent, 31% of the Moon is Illuminated
Aug 30
Waning Crescent
Sep 5
New
Sep 12
First Quarter
Sep 19
Full
Sep 27
Last Quarter

Hourly Weather History & Observations

Time (CEST) Temp. Heat Index Dew Point Humidity Pressure Visibility Wind Dir Wind Speed Gust Speed Precip Events Conditions
12:00 AM 69.8 °F - 60.8 °F 73% 30.04 in - Variable 1.2 mph - N/A   Clear
1:00 AM 69.8 °F - 59.0 °F 68% 30.04 in - Calm Calm - N/A   Clear
2:00 AM 68.0 °F - 59.0 °F 73% 30.04 in - Calm Calm - N/A   Clear
3:00 AM 68.0 °F - 59.0 °F 73% 30.04 in - Variable 2.3 mph - N/A   Clear
5:00 AM 66.2 °F - 59.0 °F 78% 30.01 in - Variable 2.3 mph - N/A   Clear
6:00 AM 66.2 °F - 59.0 °F 78% 30.01 in - Variable 2.3 mph - N/A   Clear
7:00 AM 66.2 °F - 59.0 °F 78% 30.01 in - Calm Calm - N/A   Clear
8:00 AM 64.4 °F - 59.0 °F 83% 30.04 in - Calm Calm - N/A   Clear
9:00 AM 68.0 °F - 62.6 °F 83% 30.04 in - Calm Calm - N/A   Clear
10:00 AM 73.4 °F - 64.4 °F 73% 30.04 in - Calm Calm - N/A   Clear
11:00 AM 80.6 °F 82.7 °F 66.2 °F 61% 30.04 in - Variable 3.5 mph - N/A   Clear
12:00 PM 84.2 °F 85.6 °F 64.4 °F 51% 30.06 in - Variable 5.8 mph - N/A   Clear
1:00 PM 86.0 °F 86.6 °F 62.6 °F 45% 30.06 in - Variable 5.8 mph - N/A   Clear
2:00 PM 87.8 °F 88.5 °F 62.6 °F 43% 30.04 in 6.2 mi Variable 5.8 mph - N/A   Partly Cloudy
3:00 PM 89.6 °F 89.5 °F 60.8 °F 38% 30.04 in 6.2 mi East 9.2 mph - N/A   Partly Cloudy
4:00 PM 89.6 °F 88.9 °F 59.0 °F 36% 30.01 in 6.2 mi East 6.9 mph - N/A   Scattered Clouds
5:00 PM 91.4 °F 89.9 °F 57.2 °F 31% 30.01 in 6.2 mi Variable 3.5 mph - N/A   Scattered Clouds
6:00 PM 93.2 °F 91.9 °F 57.2 °F 30% 30.01 in 6.2 mi Variable 4.6 mph - N/A   Scattered Clouds
7:00 PM 91.4 °F 89.1 °F 53.6 °F 28% 30.01 in 6.2 mi Variable 6.9 mph - N/A   Partly Cloudy
8:00 PM 89.6 °F 87.7 °F 55.4 °F 31% 30.01 in 6.2 mi East 4.6 mph - N/A   Partly Cloudy
9:00 PM 86.0 °F 84.5 °F 55.4 °F 35% 30.04 in 6.2 mi East 3.5 mph - N/A   Partly Cloudy
10:00 PM 78.8 °F - 64.4 °F 61% 30.06 in 6.2 mi West 6.9 mph - N/A   Partly Cloudy
11:00 PM 77.0 °F - 66.2 °F 69% 30.06 in 6.2 mi West 6.9 mph - N/A   Partly Cloudy